Find Starlink 35605

NORAD ID: 66150 Int'l Des: 2025-240 Owner: SPXS Country: US Constellation: starlink operational
LEOCIRCULAR

当前视图

正在加载3D地球...

About Starlink 35605

Starlink 35605 (NORAD 66150) is a starlink constellation satellite (v2 mini) launched Oct 25, 2025 by SPXS of US. It operates in LEO, CIRCULAR orbit with a mass of 575.00 kg.

即将过境

Passes for default location (London). Set your location on the main map for personalized predictions.

高度历史

Loading altitude history...

两行轨道根数

1 66150U 25240E 26264.62355510 .00015763 00000-0 47687-3 0 9995
2 66150 53.1558 230.1125 0002935 84.4139 275.7198 15.34385504 52025
Epoch: Sep 21, 2026 • Age: 12 hours

当前状态

高度 476.5 km
远地点 / 近地点 N/A
速度 7.63 km/s
星下点 -37.59°S, 38.25°E
发射日期 Oct 25, 2025
运行时间 0.9 years
类型 internet

技术详情

分类 Payload
质量 575.00 kg
干质量 530.00 kg
长度 0.30 m
跨度 29.00 m
形状 ? Box + pan
制造商 SPXS
平台类型 Starlink V2MO
阶段状态 In Orbit
所有者/国家 SPXS/US

Most Searched